www.pogodaiklimat.ru

Погода и климат >> Архив погоды >> Китай >> Sanjianfang


ПОГОДА в Sanjianfang

  • Прогноз погоды в Sanjianfang
  • Монитор погоды в Sanjianfang
  • Климат города

АРХИВ ПОГОДЫ в Sanjianfang

Время (UTC), дата Ветер
(напр.,м/с)
 
Видим.   Явления Облачность Т
(С)
Тd
(С)
f
(%)
Тe
(С)
Тes
(С)
Комфортность P
(гПа)
Po
(гПа)
Тmin
(С)
Tmax
(С)
R
(мм)
R24
(мм)
S
(см)
12 15.06 С 11
{19}
30 км 3/3 1500 м
[]
+34.8 +3.4 14 +32 +32 жарко 994.7 995.0
18 15.06 С 13
{21}
30 км ?/? +28.4 +4.0 21 +27 +27 жарко 996.9 997.0 +36.3
21 15.06 С 17
{23}
30 км ?/? +26.7 -0.3 17 +25 +25 комфорт 997.6 998.0
00 16.06 С 18
{24}
30 км 9/9
[]
+26.1 0.0 18 +24 +24 комфорт 999.5 1000.0
03 16.06 С 21
{26}
30 км 9/9
[]
+28.7 +2.8 19 +27 +27 жарко 999.8 1000.0
06 16.06 С 22
{28}
30 км 9/9
[]
+30.6 +5.8 21 +29 +29 жарко 998.8 998.8 +25.8
09 16.06 С 22
{28}
30 км 8/8 1500 м
[]
+31.8 +4.6 18 +30 +30 жарко 997.6 998.0
12 16.06 С 20
{29}
30 км 3/3 1500 м
[]
+29.6 +6.9 24 +28 +28 жарко 998.5 999.0
18 16.06 С 24
{31}
30 км ?/? +24.6 +8.1 35 +25 +25 комфорт 999.7 1000.0 +32.3
21 16.06 С 20 30 км н/о +23.6 +9.2 40 +24 +24 комфорт 1000.5 1001.0
00 17.06 СВ 18
{31}
30 км 9/9
[]
+24.3 -0.1 20 +23 +23 комфорт 1001.3 1001.0
03 17.06 С 18
{28}
30 км 8/8
[]
+28.1 +2.3 19 +26 +26 жарко 1000.2 1000.0
06 17.06 С 17
{27}
30 км 6/6
[]
+32.9 +1.9 14 +30 +30 жарко 996.9 1009.8 +23.1
09 17.06 С 14 30 км 8/8 1500 м
[]
+36.0 +0.9 11 +32 +32 жарко 994.1 994.0
12 17.06 С 14
{21}
30 км 9/9
[]
+34.4 +0.9 12 +31 +31 жарко 993.5 916.1
18 17.06 С 15
{21}
30 км ?/? +28.7 +1.3 17 +26 +26 жарко 994.6 995.0 +36.4
21 17.06 С 15 30 км н/о +27.7 +4.1 22 +26 +26 жарко 994.6 995.0
00 18.06 С 9
{21}
30 км 9/9 1500 м
[]
+27.6 +3.3 21 +26 +26 жарко 996.0 996.0
03 18.06 С 8 30 км 9/9 1500 м
[]
+31.5 +2.7 16 +29 +29 жарко 996.0 996.0
06 18.06 ЮВ 7 30 км 9/9 1500 м
[]
+37.4 +3.2 12 +34 +35 очень
жарко
993.5 994.0 +27.2
09 18.06 ЮВ 12
{20}
17 км 9/9 1500 м
[]
+37.0 +4.1 13 +34 +34 очень
жарко
992.2 992.0
12 18.06 З 10
{22}
8000 м слабый ливневой дождь 9/9 1500 м
[]
+28.2 +12.5 38 +30 +30 жарко 996.3 996.0 0.0
18 18.06 С 16
{22}
30 км ?/? +21.1 +12.5 58 +23 +23 комфорт 998.1 920.3 +38.9 0.0
21 18.06 С 17 30 км н/о +21.3 +12.2 56 +23 +23 комфорт 997.2 997.0
00 19.06 С 13
{24}
30 км 9/9 1500 м
[]
+22.3 +12.3 53 +25 +25 комфорт 999.6 1011.3 0.0
03 19.06 С 17
{22}
30 км 9/9
[]
+25.5 +12.4 44 +27 +27 жарко 1000.2 1000.0
06 19.06 С 15
{23}
30 км 5/5
[]
+27.8 +11.8 37 +29 +29 жарко 1000.3 1000.0 +20.8
09 19.06 С 19 30 км 6/6
[]
+28.2 +11.3 35 +29 +29 жарко 999.0 999.0
12 19.06 С 15
{24}
30 км 8/8 1500 м
[]
+25.8 +11.6 41 +27 +27 жарко 999.6 1000.0
18 19.06 С 13
{23}
30 км ?/? +23.8 +12.8 50 +26 +26 жарко 1001.5 1002.0 +29.0
21 19.06 С 13 30 км н/о +23.5 +12.5 50 +25 +25 комфорт 1002.4 1002.0
00 20.06 С 12
{18}
30 км 3/3 1500 м
[]
+25.4 +10.4 39 +26 +26 жарко 1003.1 1003.0
03 20.06 С 9 30 км ясно +28.9 +10.6 32 +29 +31 жарко 1003.0 1003.0
06 20.06 С 6
{18}
30 км 5/5 1500 м
[]
+32.9 +9.7 24 +32 +36 жарко 1001.3 1014.2 +23.3
09 20.06 С 9 30 км 3/3 1500 м
[]
+34.7 +7.7 19 +33 +34 жарко 998.7 999.0
12 20.06 С 8 30 км ясно +34.0 +6.4 18 +32 +32 жарко 997.9 920.2
18 20.06 В 6 30 км ?/? +26.7 +8.7 32 +27 +27 жарко 1000.4 1000.0 +35.1
21 20.06 С 6 30 км ?/? +25.4 +8.8 35 +26 +26 жарко 1000.4 1000.0
00 21.06 СВ 14
{20}
30 км 9/9
[]
+27.4 +8.3 30 +27 +27 жарко 1000.8 1001.0
03 21.06 С 17 30 км 9/9
[]
+29.2 +9.4 29 +29 +29 жарко 1001.7 1002.0
06 21.06 С 16
{24}
30 км 3/3 1500 м
[]
+30.7 +10.1 28 +30 +30 жарко 1001.5 1001.5 +25.4
09 21.06 С 22
{28}
30 км 4/4 1500 м
[]
+27.7 +10.9 35 +28 +28 жарко 1001.2 1001.0
12 21.06 С 19
{28}
30 км 8/8 1500 м
[]
+24.9 +10.8 41 +26 +26 жарко 1002.1 1002.0
18 21.06 С 21
{28}
30 км ?/? +22.5 +9.3 43 +24 +24 комфорт 1003.8 1004.0 +31.5
21 21.06 С 18 30 км н/о +22.3 +10.1 46 +24 +24 комфорт 1003.6 1004.0
00 22.06 С 17
{28}
30 км 9/9 1500 м
[]
+22.2 +10.7 48 +24 +24 комфорт 1005.4 1005.0
03 22.06 С 14
{27}
30 км 9/9 1500 м
[]
+22.2 +10.7 48 +24 +24 комфорт 1007.0 1007.0
06 22.06 С 17
{24}
30 км 9/9 1500 м
[]
+22.4 +9.2 43 +24 +24 комфорт 1006.5 1007.0 +20.5
09 22.06 С 15
{22}
30 км 9/9 1500 м
[]
+22.5 +9.7 44 +24 +24 комфорт 1004.3 1004.0

 

Местоположение метеостанции Sanjianfang (Китай): широта 43.22 долгота 91.73 высота над уровнем моря 792 м.

В архиве по умолчанию представлена погода в Sanjianfang за последнюю неделю. Архивные данные за месяц целиком и за предыдущие месяцы, начиная с января 2011 года, Вы можете получить, выбрав интересующий диапазон дат из раскрывающегося списка и нажав кнопку "Ввод!".


*Определитесь, кто Вы:
робот инопланетянин человек

Внимание! Время в таблицах - всемирное. Для получения местного времени необходимо прибавить поправку, которая в Sanjianfang равна 8 ч.

Смотрите также архив погоды в соседних городах и на ближайших метеорологических станциях:

Погода в Hami (Китай) (152 км)
Погода в Qitai (Китай) (195 км)
Погода в Turpan (Китай) (208 км)
Погода в Beita Shan (Китай) (258 км)
Погода в Naomaohu (Китай) (278 км)
Погода в Baitag (Монголия) (323 км)
Погода в Urumqi (Китай) (335 км)
Погода в Tonhil (Монголия) (385 км)
Погода в Jargalant (Монголия) (415 км)
Погода в Dunhuang (Китай) (420 км)

Пояснения к столбцам:

Ветер - указаны скорость ветра в м/с - средняя за 10 мин, порывы в срок и между сроками (в фигурных скобках) и направление, откуда дует ветер: С - северный, СВ - северо-восточный, В - восточный, ЮВ - юго-восточный, Ю - южный, ЮЗ - юго-западный, З - западный, СЗ - северо-западный.
Видимость - горизонтальная дальность видимости в метрах или километрах. При видимости от 1 до 10 км при отсутствии осадков обычно наблюдается дымка, при ухудшении видимости до 1 км и менее - туман. В сухую погоду видимость может ухудшаться дымом, пылью или мглою.
Явления - указаны атмосферные явления, наблюдавшиеся в срок или в последний час перед сроком; фигурными скобками обозначены явления, наблюдавшиеся между сроками (за 1-3 часа до срока); квадратными скобками обозначены град или гололедные отложения с указанием их диаметра в мм.
Облачность - указаны через наклонную черту общая и нижняя облачность в баллах и высота нижней границы облаков в метрах; квадратными скобками обозначены формы облаков: Ci - перистые, Cs - перисто-слоистые, Cc - перисто-кучевые, Ac - высококучевые, As - высокослоистые, Sc - слоисто-кучевые, Ns - слоисто-дождевые, Cu - кучевые, Cb - кучево-дождевые. Подробнее классификацию облаков см. в Атласе облаков (PDF).
T - Температура воздуха - температура, измеренная на высоте 2 м над землей.
Td - Температура точки росы - температура, при понижении до которой содержащийся в воздухе водяной пар достигнет насыщения.
f - Относительная влажность воздуха - влажноcть воздуха, измеренная на высоте 2 м над землей.
Te - Эффективная температура - температура, которую ощущает одетый по сезону человек в тени. Характеристика душности погоды. При расчете учитывается влияние влажности воздуха и скорости ветра на теплоощущения человека.
Tes - Эффективная температура на солнце - температура, которую ощущает человек, с поправкой на солнечный нагрев. Характеристика знойности погоды. Зависит от высоты солнца над горизонтом, облачности и скорости ветра. Ночью, в пасмурную погоду, а также при ветре 12 м/с и более поправка равна нулю.
P - Атмосферное давление - приведенное к уровню моря атмосферное давление.
Po - Атмосферное давление - измеренное на уровне метеостанции атмосферное давление.
Tmin - Минимальная температура - минимум температуры воздуха на высоте 2 м над землей.
Tmax - Максимальная температура - максимум температуры воздуха на высоте 2 м над землей.
R - Количество осадков - Количество выпавших осадков за период времени, мм. При наведении курсора мыши на число - период времени, за который выпало указанное количество осадков.
R24 - Количество осадков - Количество выпавших осадков за 24 часа, мм.
S - Снежный покров - Высота снежного покрова, см. При наведении курсора мыши на число - состояние снежного покрова и степень покрытия местности в баллах.